TimeCST,TemperatureF,Dew PointF,Humidity,Sea Level PressureIn,VisibilityMPH,Wind Direction,Wind SpeedMPH,Gust SpeedMPH,PrecipitationIn,Events,Conditions,WindDirDegrees,DateUTC
12:53 AM,48.9,37.9,66,30.27,10.0,NNE,5.8,-,0.00,Rain,Light Rain,20,2013-12-28 06:53:00
1:53 AM,46.9,39.9,77,30.24,10.0,NNE,6.9,-,0.02,Rain,Light Rain,20,2013-12-28 07:53:00
2:53 AM,46.9,41.0,80,30.22,10.0,North,5.8,-,0.00,Rain,Light Rain,10,2013-12-28 08:53:00
3:53 AM,46.0,42.1,86,30.22,5.0,North,4.6,-,0.04,Rain,Rain,10,2013-12-28 09:53:00
4:53 AM,45.0,42.1,90,30.21,7.0,NNE,3.5,-,0.09,Rain,Light Rain,30,2013-12-28 10:53:00
5:53 AM,45.0,42.1,90,30.18,5.0,NNE,8.1,-,0.12,Rain,Rain,20,2013-12-28 11:53:00
6:50 AM,44.6,42.8,93,30.16,5.0,NNE,8.1,-,0.11,Rain,Light Rain,30,2013-12-28 12:50:00
6:53 AM,45.0,43.0,93,30.16,5.0,NNE,8.1,-,0.12,Rain,Light Rain,30,2013-12-28 12:53:00
7:08 AM,45.0,44.1,97,30.17,3.0,North,5.8,-,0.04,Rain,Rain,350,2013-12-28 13:08:00
7:16 AM,45.0,44.1,97,30.19,4.0,NW,4.6,-,0.05,Rain,Light Rain,320,2013-12-28 13:16:00
7:29 AM,45.0,44.1,97,30.19,2.0,NNW,4.6,-,0.12,Rain,Heavy Rain,340,2013-12-28 13:29:00
7:46 AM,45.0,44.1,97,30.18,2.0,North,8.1,-,0.23,Rain,Heavy Rain,360,2013-12-28 13:46:00
7:53 AM,45.0,44.1,97,30.18,2.0,North,9.2,-,0.25,Rain,Rain,360,2013-12-28 13:53:00
8:53 AM,46.0,44.1,93,30.17,2.0,North,9.2,-,0.22,Rain,Rain,350,2013-12-28 14:53:00
9:09 AM,46.0,44.1,93,30.19,4.0,NNW,5.8,-,0.03,Rain,Light Rain,340,2013-12-28 15:09:00
9:13 AM,46.0,44.1,93,30.19,1.8,North,6.9,-,0.07,Rain,Heavy Rain,360,2013-12-28 15:13:00
9:28 AM,46.0,44.1,93,30.20,3.0,NW,5.8,-,0.10,Rain,Rain,320,2013-12-28 15:28:00
9:36 AM,46.0,44.1,93,30.19,3.0,North,6.9,-,0.11,Rain,Light Rain,350,2013-12-28 15:36:00
9:46 AM,46.0,44.1,93,30.18,2.0,North,10.4,-,0.14,Rain,Rain,360,2013-12-28 15:46:00
9:53 AM,46.0,44.1,93,30.17,3.0,North,11.5,-,0.15,Rain,Light Rain,10,2013-12-28 15:53:00
10:02 AM,46.9,45.0,93,30.15,2.0,North,13.8,-,0.03,Rain,Heavy Rain,360,2013-12-28 16:02:00
10:19 AM,46.9,45.0,93,30.14,4.0,North,12.7,-,0.06,Rain,Rain,10,2013-12-28 16:19:00
10:32 AM,46.9,45.0,93,30.14,2.5,North,11.5,-,0.11,Rain,Rain,360,2013-12-28 16:32:00
10:41 AM,46.9,45.0,93,30.14,3.0,North,9.2,-,0.13,Rain,Rain,10,2013-12-28 16:41:00
10:53 AM,48.0,46.0,93,30.13,3.0,North,10.4,-,0.15,Rain,Rain,10,2013-12-28 16:53:00
11:13 AM,46.9,46.0,97,30.13,2.5,North,9.2,-,0.05,Rain,Rain,360,2013-12-28 17:13:00
11:46 AM,48.0,46.0,93,30.10,4.0,North,9.2,-,0.10,Rain,Light Rain,360,2013-12-28 17:46:00
11:53 AM,48.0,46.0,93,30.09,3.0,North,11.5,-,0.11,Rain,Rain,10,2013-12-28 17:53:00
12:07 PM,48.0,46.9,96,30.07,2.5,North,10.4,-,0.03,Rain,Rain,10,2013-12-28 18:07:00
12:22 PM,48.9,46.9,93,30.06,4.0,NNE,10.4,-,0.05,Rain,Light Rain,20,2013-12-28 18:22:00
12:37 PM,48.9,46.9,93,30.05,2.0,NNE,10.4,-,0.07,Rain,Rain,30,2013-12-28 18:37:00
12:45 PM,48.9,46.9,93,30.05,1.8,NNE,9.2,-,0.10,Rain,Rain,20,2013-12-28 18:45:00
12:53 PM,48.9,46.9,93,30.04,2.0,NNE,8.1,-,0.11,Rain,Rain,30,2013-12-28 18:53:00
1:02 PM,48.9,46.9,93,30.03,4.0,North,10.4,-,0.00,Rain,Light Rain,10,2013-12-28 19:02:00
1:53 PM,50.0,48.0,93,30.00,3.0,NE,10.4,-,0.03,Rain,Light Rain,50,2013-12-28 19:53:00
2:53 PM,51.1,48.9,92,29.99,10.0,North,8.1,-,0.00,Rain,Light Rain,10,2013-12-28 20:53:00
3:35 PM,50.0,48.9,96,30.01,2.5,North,3.5,-,0.04,Rain,Light Rain,360,2013-12-28 21:35:00
3:43 PM,50.0,48.9,96,30.00,4.0,NNW,3.5,-,0.04,Rain,Light Rain,330,2013-12-28 21:43:00
3:53 PM,50.0,48.0,93,29.97,4.0,NNE,10.4,-,0.06,Rain,Rain,20,2013-12-28 21:53:00
4:53 PM,50.0,48.0,93,29.97,10.0,North,4.6,-,0.04,Rain,Light Rain,350,2013-12-28 22:53:00
5:53 PM,50.0,48.0,93,30.00,10.0,NW,4.6,-,0.00,,Overcast,310,2013-12-28 23:53:00
6:53 PM,50.0,48.0,93,30.01,10.0,North,4.6,-,0.01,,Overcast,350,2013-12-29 00:53:00
7:43 PM,48.9,46.9,93,30.00,10.0,NNW,5.8,-,0.00,Rain,Light Rain,330,2013-12-29 01:43:00
7:53 PM,48.9,46.9,93,29.99,10.0,North,5.8,-,0.00,Rain,Light Rain,360,2013-12-29 01:53:00
8:15 PM,48.9,46.9,93,29.99,10.0,North,4.6,-,0.00,Rain,Light Rain,360,2013-12-29 02:15:00
8:53 PM,48.9,48.0,97,30.00,10.0,NW,3.5,-,0.00,Rain,Light Rain,310,2013-12-29 02:53:00
9:23 PM,50.0,48.0,93,30.00,10.0,NNW,3.5,-,0.00,Rain,Light Rain,340,2013-12-29 03:23:00
9:49 PM,48.2,48.2,100,30.00,10.0,NW,3.5,-,0.01,Rain,Light Rain,310,2013-12-29 03:49:00
9:53 PM,48.9,48.0,97,30.00,10.0,Calm,Calm,-,0.01,Rain,Light Rain,0,2013-12-29 03:53:00
10:53 PM,48.9,48.0,97,29.99,10.0,Calm,Calm,-,0.02,Rain,Light Rain,0,2013-12-29 04:53:00
11:53 PM,48.9,48.0,97,29.98,10.0,East,3.5,-,0.00,,Overcast,100,2013-12-29 05:53:00